Regional Weather Roundup
Issued by NWS

Home | Current Version | Previous Version | Graphics & Text | Print | Product List | Glossary On
Versions: 1 2 3 4 5 6 7 8 9 10 11 12 13 14 15 16 17 18 19 20 21 22 23 24 25 26 27 28 29 30 31 32 33 34 35 36 37 38 39 40 41 42 43 44 45 46 47 48 49 50
000
ASUS44 KMEG 230710
RWRTN
TENNESSEE HOURLY STATE WEATHER ROUNDUP
NATIONAL WEATHER SERVICE MEMPHIS TN
200 AM CDT THU MAR 23 2017

TNZ002-004-019-021-049-052-054-088>092-230800-
WEST TENNESSEE

CITY           SKY/WX    TMP DP  RH WIND       PRES   REMARKS
MEMPHIS INTL   CLEAR     52  26  35 E9        30.27F
NWS MEMPHIS      N/A     50 N/A N/A MISG        N/A
JACKSON        MOCLDY    47  26  44 E6        30.29F
DYERSBURG      MOCLDY    47  28  47 E6        30.29F
SOMERVILLE     CLOUDY    48  25  40 VRB3      30.26S
BOLIVAR        CLOUDY    48  23  37 NE5       30.28S
PARIS          CLEAR     41  21  45 E9        30.31F
HUNTINGDON     CLOUDY    45  23  42 E10       30.29F
SAVANNAH       PTCLDY    46  23  39 CALM      30.27F
$$

TNZ008-025-027-028-033-062-065-066-230800-
NORTH MIDDLE TENNESSEE

CITY           SKY/WX    TMP DP  RH WIND       PRES   REMARKS
NASHVILLE      CLEAR     42  22  44 NE6       30.32F
PORTLAND       CLEAR     37  23  56 NE6       30.33F WCI  33
CLARKSVILLE    CLEAR     38  24  57 E6        30.34F WCI  33
SMYRNA         CLEAR     42  24  49 N6        30.33F
COOKEVILLE     CLEAR     37  32  81 CALM      30.30F
GALLATIN       CLEAR     41  23  48 N5        30.36F
CROSSVILLE     PTCLDY    39  21  48 E3        30.31F
$$

TNZ061-075-076-078-094-096-097-230800-
SOUTH MIDDLE TENNESSEE

CITY           SKY/WX    TMP DP  RH WIND       PRES   REMARKS
FAYETTEVILLE   CLEAR     43  25  49 NE6       30.28F
TULLAHOMA      CLEAR     43  18  36 E3        30.30F
WINCHESTER     CLEAR     43  32  65 CALM      30.30S
MCMINNVILLE    CLEAR     39  25  56 NE5       30.30F
COLUMBIA       CLEAR     43  25  49 CALM      30.29F
SHELBYVILLE    CLEAR     39  36  87 CALM      30.31F
$$

TNZ017-018-042-046-047-230800-
NORTHEAST TENNESSEE

CITY           SKY/WX    TMP DP  RH WIND       PRES   REMARKS
TRI CITIES     CLEAR     36  19  50 CALM      30.36F
$$

TNZ012-013-036-069-073-074-230800-
CENTRAL EAST TENNESSEE

CITY           SKY/WX    TMP DP  RH WIND       PRES   REMARKS
KNOXVILLE      PTCLDY    43  20  39 NE7       30.31F
OAK RIDGE      PTCLDY    45  17  32 NE5       30.34F
DOWNTOWN KNOXV CLEAR     39  30  70 CALM      30.33F
GATLINBURG     CLEAR     37  25  60 CALM      30.32F
MORRISTOWN     PTCLDY    41  18  38 E7        30.31F
JACKSBORO      PTCLDY    39  28  65 CALM      30.37S
$$

TNZ083-085-099-230800-
SOUTHEAST TENNESSEE

CITY           SKY/WX    TMP DP  RH WIND       PRES   REMARKS
CHATTANOOGA    PTCLDY    49  23  36 N7        30.32S
$$

SKY/WX REPORTED AS FAIR MEANS FEW OR NO CLOUDS BELOW
12 THOUSAND FEET.




USA.gov is the U.S. government's official web portal to all federal, state and local government web resources and services.